Satellite-Ground Cal/Val Region Overpasses Predictions

Prediction of Satellite NPP Overpassing Cal/Val Region: PacNW

Region Location: (Latitude: 10.00, Longitude: 139.50) to (Latitude: 22.70, Longitude: 165.60).

Table of predicted overpasses for the next 14.0 days since TLE Epoch: 4/20/2017
Interval Starting Time Starting Location Ending Time Ending Location
1 04/21/2017 02:58:05 ( 10.02, 155.17) 04/21/2017 03:01:40 ( 22.65, 152.17)
2 04/21/2017 15:29:58 ( 22.65, 152.40) 04/21/2017 15:33:33 ( 10.03, 149.40)
3 04/22/2017 02:39:03 ( 10.04, 159.93) 04/22/2017 02:42:38 ( 22.66, 156.93)
4 04/22/2017 15:10:57 ( 22.64, 157.16) 04/22/2017 15:14:32 ( 10.02, 154.16)
5 04/23/2017 02:20:02 ( 10.05, 164.68) 04/23/2017 02:23:37 ( 22.67, 161.68)
6 04/23/2017 14:51:54 ( 22.69, 161.93) 04/23/2017 14:55:30 ( 10.01, 158.91)
7 04/24/2017 03:42:29 ( 10.00, 144.08) 04/24/2017 03:46:05 ( 22.68, 141.06)
8 04/24/2017 14:34:09 ( 18.22, 165.59) 04/24/2017 14:36:29 ( 10.00, 163.66)
9 04/24/2017 16:14:23 ( 22.67, 141.31) 04/24/2017 16:16:29 ( 15.28, 139.51)
10 04/25/2017 03:23:28 ( 10.01, 148.83) 04/25/2017 03:27:04 ( 22.70, 145.81)
11 04/25/2017 15:55:21 ( 22.66, 146.06) 04/25/2017 15:58:56 ( 10.04, 143.06)
12 04/26/2017 03:04:26 ( 10.03, 153.58) 04/26/2017 03:08:01 ( 22.65, 150.58)
13 04/26/2017 15:36:20 ( 22.65, 150.81) 04/26/2017 15:39:55 ( 10.03, 147.81)
14 04/27/2017 02:45:25 ( 10.04, 158.34) 04/27/2017 02:49:00 ( 22.66, 155.34)
15 04/27/2017 15:17:17 ( 22.70, 155.58) 04/27/2017 15:20:53 ( 10.02, 152.57)
16 04/28/2017 02:26:23 ( 10.05, 163.09) 04/28/2017 02:29:58 ( 22.67, 160.09)
17 04/28/2017 14:58:16 ( 22.69, 160.34) 04/28/2017 15:01:52 ( 10.01, 157.32)
18 04/29/2017 02:10:05 ( 19.64, 165.60) 04/29/2017 02:10:57 ( 22.69, 164.84)
19 04/29/2017 03:48:51 ( 10.01, 142.48) 04/29/2017 03:52:24 ( 22.52, 139.51)
20 04/29/2017 14:39:15 ( 22.67, 165.09) 04/29/2017 14:42:50 ( 10.05, 162.09)
21 04/29/2017 16:20:44 ( 22.67, 139.71) 04/29/2017 16:20:58 ( 21.85, 139.51)
22 04/30/2017 03:29:49 ( 10.02, 147.24) 04/30/2017 03:33:24 ( 22.65, 144.24)
23 04/30/2017 16:01:43 ( 22.66, 144.47) 04/30/2017 16:05:18 ( 10.04, 141.47)
24 05/01/2017 03:10:48 ( 10.04, 151.99) 05/01/2017 03:14:23 ( 22.66, 148.99)
25 05/01/2017 15:42:42 ( 22.64, 149.22) 05/01/2017 15:46:17 ( 10.02, 146.22)
26 05/02/2017 02:51:46 ( 10.05, 156.75) 05/02/2017 02:55:21 ( 22.68, 153.74)
27 05/02/2017 15:23:39 ( 22.69, 153.99) 05/02/2017 15:27:15 ( 10.01, 150.97)
28 05/03/2017 02:32:44 ( 10.01, 161.51) 05/03/2017 02:36:20 ( 22.69, 158.50)
29 05/03/2017 15:04:38 ( 22.67, 158.74) 05/03/2017 15:08:13 ( 10.05, 155.74)
30 05/04/2017 02:14:32 ( 12.96, 165.59) 05/04/2017 02:17:17 ( 22.65, 163.27)
31 05/04/2017 03:55:12 ( 10.03, 140.89) 05/04/2017 03:56:54 ( 16.02, 139.50)


NCC Satellite Cal/Val Overpasses Prediction Service
